Torna al catalogo

THORAD DELTA 1 DEB

AttivoLEO
NORAD 42596·DEBRIS·🇺🇸 United States

Lanciato Nov 15, 1974 da Vandenberg Space Force Base

Loading…

Prossimi Passaggi (prossime 24 ore)

TLE

In scadenzaSource: Space-Track

Epoca: Sep 11, 2026, 21:47 UTC

1 42596U 74089FM  26254.90782398 -.00000046  00000-0 -44704-4 0  9994
2 42596 101.5030 237.1889 0144784 350.0909  37.0778 12.25696422572937

Traccia THORAD DELTA 1 DEB in tempo reale con AllMySat

Download on the App Store